[[{"header":{"parameterUnit":"m.s-1","parameterCategory":1,"la1":30.2991,"la2":30.254,"lo1":-89.0895,"lo2":-89.0444,"dy":0.0017,"dx":0.0017,"nx":28,"ny":28,"refTime":"2024-07-07T09:00:00:Z","depth":0,"parameterNumber":2,"parameterNumberName":"U-component_of_WINDS"},"data":[0,0,0,0,0,0,0,0,0,0,0,0,0,0,0,0,0,0,0,0,0,0,0,0,0,0,0,0,0,0,0,0,0,0,0,0,0,0,0,0,0,0,0,0,0,0,0,0,0,0,0,0,0,0,0,0,0,0,0.6514,0.6516,0,0.6727,0.6729,0.6731,0.6825,0.6824,0.6824,0.6824,0.7044,0.705,0.7056,0,0,0,0,0,0,0,0,0,0,0,0,0,0.6187,0.6193,0.6513,0.6516,0.6519,0.6726,0.6729,0.6732,0.6825,0.6824,0.6824,0.6824,0.7042,0.7049,0.7056,0,0,0,0,0,0,0,0,0,0,0,0,0,0.6357,0.6195,0.6513,0.659,0.6599,0.6726,0.6729,0.6733,0.6825,0.6824,0.6824,0.6823,0.7039,0.7048,0.7057,0.7124,0,0,0.7085,0.7089,0,0,0,0,0,0,0,0,0.6348,0.6369,0.6576,0.6585,0.6595,0.6749,0.6695,0.6864,0.6825,0.6739,0.6824,0.6823,0.6946,0.6963,0.7004,0.7134,0.7143,0.7086,0.7092,0.7096,0.7098,0,0,0,0,0,0,0,0.6336,0.6361,0.6598,0.6579,0.6591,0.6614,0.6638,0.6727,0.6843,0.6747,0.6754,0.6778,0.6951,0.6995,0.701,0.7147,0.7086,0.7094,0.71,0.7104,0.7342,0.7342,0,0,0,0,0,0,0.6311,0.635,0.6591,0.6604,0.6468,0.662,0.6647,0.67,0.6842,0.6863,0.6778,0.6781,0.6979,0.6999,0.7018,0.7105,0.7096,0.7104,0.711,0.7341,0.7342,0.7343,0,0,0,0,0,0,0.6304,0.6332,0.6582,0.6479,0.6513,0.6626,0.6685,0.6704,0.6748,0.6866,0.6887,0.6801,0.698,0.7005,0.7097,0.7114,0.7109,0.7117,0.734,0.7341,0.7342,0.7279,0,0,0,0,0,0,0.6294,0.6329,0.6355,0.6479,0.6518,0.6657,0.6686,0.6709,0.6764,0.677,0.6893,0.6913,0.6981,0.7082,0.7106,0.7127,0.7124,0.7339,0.734,0.7342,0.728,0.7278,0.7276,0,0,0,0,0,0.6282,0.6329,0.6356,0.6384,0.6553,0.6658,0.668,0.6757,0.6764,0.6792,0.6867,0.6909,0.7108,0.7091,0.7118,0.7142,0.7338,0.734,0.7342,0.7281,0.7279,0.7276,0,0,0,0,0,0,0.6205,0.6347,0.6378,0.6467,0.6549,0.6673,0.6711,0.6752,0.6835,0.6838,0.693,0.6957,0.7041,0.7101,0.7079,0.7213,0.7227,0.7234,0.7171,0.717,0.7168,0.7152,0.7132,0,0,0,0,0,0.6198,0.6271,0.6391,0.6458,0.6497,0.6596,0.6645,0.6697,0.6787,0.6822,0.6905,0.699,0.7072,0.7124,0.7206,0.7289,0.7317,0.7319,0.7317,0.7315,0.732,0.7368,0.737,0.7349,0.7349,0.7349,0,0,0.6185,0.6271,0.6312,0.6444,0.6515,0.6588,0.6625,0.6702,0.6757,0.6834,0.6926,0.6988,0.709,0.7178,0.722,0.723,0.7332,0.7317,0.7314,0.7321,0.737,0.7372,0.7374,0.735,0.735,0.7349,0,0,0.6198,0.6271,0.6334,0.6404,0.6509,0.6575,0.6589,0.6707,0.6752,0.6845,0.6904,0.6971,0.711,0.718,0.7234,0.7272,0.7314,0.7297,0.7286,0.7332,0.7334,0.7336,0.735,0.7354,0.7301,0.7301,0.7301,0,0.6169,0.6282,0.6362,0.6435,0.6491,0.6563,0.6628,0.6691,0.6818,0.6856,0.6864,0.704,0.7114,0.7218,0.7227,0.7268,0.7289,0.7284,0.7327,0.733,0.7333,0.7347,0.7352,0.7299,0.7299,0.7299,0.7299,0,0.624,0.6317,0.6356,0.6476,0.6537,0.6605,0.6695,0.6747,0.6793,0.6857,0.6951,0.7041,0.7143,0.7171,0.7217,0.7282,0.7285,0.7309,0.7325,0.7331,0.7346,0.7352,0.7294,0.7295,0.7296,0.7297,0,0,0.6213,0.6375,0.6388,0.6443,0.6564,0.6625,0.6696,0.6795,0.6837,0.6922,0.6984,0.7099,0.7122,0.7183,0.7238,0.7278,0.7302,0.7298,0.7301,0.7295,0.7379,0.7361,0.7366,0.733,0.7331,0.7333,0.7371,0,0.6243,0.6374,0.6447,0.6548,0.662,0.6688,0.6751,0.6831,0.6893,0.6963,0.7032,0.7112,0.7136,0.7173,0.7216,0.729,0.732,0.7288,0.7389,0.7392,0.7362,0.7374,0.7355,0.7387,0.7377,0.7378,0.7379,0,0.6297,0.6379,0.6486,0.6598,0.6631,0.6686,0.6782,0.6848,0.6941,0.6983,0.705,0.7104,0.7182,0.719,0.7299,0.7275,0.7321,0.7363,0.7366,0.7379,0.7386,0.7387,0.7399,0.7403,0.7389,0.7388,0.7388,0,0.6266,0.6404,0.6486,0.6531,0.6663,0.67,0.6757,0.685,0.6904,0.6987,0.7023,0.7114,0.7165,0.7234,0.7312,0.731,0.7413,0.7427,0.745,0.7448,0.7469,0.7467,0.7488,0.7497,0.7497,0.7497,0.7497,0,0.6292,0.6355,0.6473,0.6524,0.6596,0.668,0.6749,0.6812,0.6893,0.6957,0.7022,0.708,0.7179,0.7249,0.731,0.7391,0.7413,0.745,0.7465,0.7444,0.744,0.7476,0.7476,0.7498,0.7498,0.7498,0.7498,0,0.6271,0.6352,0.6446,0.6564,0.6595,0.6643,0.6744,0.6795,0.6859,0.6939,0.6963,0.7064,0.7151,0.7234,0.735,0.7391,0.7472,0.7492,0.744,0.7449,0.7467,0.7464,0.7513,0.7524,0.7524,0.7524,0.7524,0,0.6283,0.6333,0.6455,0.6502,0.6558,0.6633,0.6688,0.6772,0.6827,0.6935,0.6974,0.7065,0.7142,0.7277,0.7361,0.745,0.7474,0.7485,0.7488,0.7465,0.7475,0.7471,0.7476,0.7483,0.7482,0.7482,0.7482,0,0.6295,0.6333,0.641,0.65,0.6564,0.664,0.6718,0.6753,0.6852,0.691,0.6999,0.7058,0.7176,0.7266,0.7365,0.7424,0.7469,0.748,0.749,0.747,0.7437,0.7455,0.7435,0.7479,0.7479,0.7479,0.7479,0.7479,0.6292,0.6339,0.6432,0.6515,0.6583,0.6654,0.6708,0.6778,0.6853,0.6956,0.7,0.709,0.7181,0.7318,0.7376,0.7448,0.7459,0.7474,0.7477,0.748,0.7475,0.7425,0.7466,0.7466,0.7467,0.7467,0.7467,0,0.6308,0.6371,0.6446,0.6553,0.6618,0.6654,0.6742,0.6794,0.6872,0.6953,0.7027,0.7129,0.7216,0.7306,0.7399,0.7438,0.7461,0.746,0.7458,0.7471,0.746,0.7442,0.7439,0.7439,0.7439,0.7439,0.7439,0.7439,0.6324,0.6406,0.6454,0.657,0.6633,0.6721,0.6768,0.6833,0.6899,0.7009,0.7081,0.7139,0.7224,0.7323,0.7404,0.7428,0.7459,0.7452,0.7482,0.747,0.7472,0.7474,0.7457,0.7458,0.7458,0.7487,0.7488,0.7488]},{"header":{"parameterUnit":"m.s-1","parameterCategory":1,"la1":30.2991,"la2":30.254,"lo1":-89.0895,"lo2":-89.0444,"dy":0.0017,"dx":0.0017,"nx":28,"ny":28,"refTime":"2024-07-07T09:00:00:Z","depth":0,"parameterNumber":3,"parameterNumberName":"V-component_of_WINDS"},"data":[0,0,0,0,0,0,0,0,0,0,0,0,0,0,0,0,0,0,0,0,0,0,0,0,0,0,0,0,0,0,0,0,0,0,0,0,0,0,0,0,0,0,0,0,0,0,0,0,0,0,0,0,0,0,0,0,0,0,3.8365,3.8365,0,3.8294,3.8293,3.8292,3.8284,3.8285,3.8285,3.8286,3.8204,3.8201,3.8199,0,0,0,0,0,0,0,0,0,0,0,0,0,3.8488,3.8486,3.8366,3.8365,3.8364,3.8294,3.8293,3.8292,3.8284,3.8285,3.8285,3.8286,3.8205,3.8202,3.8198,0,0,0,0,0,0,0,0,0,0,0,0,0,3.8427,3.8485,3.8366,3.8351,3.8349,3.8294,3.8293,3.8292,3.8283,3.8285,3.8286,3.8287,3.8206,3.8202,3.8198,3.8149,0,0,3.8185,3.8183,0,0,0,0,0,0,0,0,3.8431,3.8423,3.8354,3.8352,3.835,3.8299,3.8306,3.8244,3.8283,3.8308,3.8286,3.8287,3.8234,3.8228,3.8212,3.8146,3.8142,3.8184,3.8182,3.818,3.8179,0,0,0,0,0,0,0,3.8435,3.8426,3.8337,3.8353,3.8351,3.8346,3.8339,3.8294,3.8266,3.8306,3.8305,3.8297,3.8233,3.8216,3.821,3.8141,3.8185,3.8181,3.8178,3.8176,3.8031,3.803,0,0,0,0,0,0,3.8443,3.8429,3.8339,3.8335,3.8394,3.8343,3.8335,3.8314,3.8266,3.826,3.8297,3.8297,3.8223,3.8215,3.8207,3.8147,3.818,3.8176,3.8174,3.8032,3.8031,3.8029,0,0,0,0,0,0,3.8445,3.8435,3.8342,3.8382,3.837,3.834,3.8317,3.8312,3.8295,3.8259,3.8253,3.8285,3.8223,3.8213,3.8164,3.8144,3.8174,3.817,3.8034,3.8032,3.803,3.8027,0,0,0,0,0,0,3.8449,3.8436,3.8419,3.8382,3.8368,3.8303,3.8315,3.831,3.8288,3.8289,3.8246,3.824,3.8223,3.8171,3.816,3.8138,3.8167,3.8035,3.8033,3.8031,3.8028,3.8025,3.8022,0,0,0,0,0,3.8453,3.8419,3.8418,3.8407,3.8346,3.8302,3.8294,3.8277,3.8287,3.8268,3.8246,3.8242,3.8148,3.8166,3.8154,3.8131,3.8037,3.8034,3.8031,3.803,3.8025,3.8022,0,0,0,0,0,0,3.8451,3.8414,3.8412,3.8365,3.8337,3.8301,3.8277,3.8273,3.824,3.8241,3.8219,3.821,3.8162,3.8141,3.8162,3.8081,3.8093,3.8088,3.8096,3.8092,3.8089,3.8094,3.8163,0,0,0,0,0,3.8446,3.8416,3.8383,3.8345,3.8331,3.8307,3.8287,3.8277,3.8246,3.8233,3.8206,3.8174,3.8138,3.8114,3.8078,3.8026,3.8016,3.8004,3.8,3.7998,3.7993,3.7963,3.7957,3.802,3.802,3.802,0,0,3.8433,3.8409,3.839,3.8344,3.8321,3.8288,3.8296,3.8261,3.8235,3.8226,3.818,3.8159,3.8122,3.8071,3.8048,3.8053,3.7974,3.7994,3.7992,3.7989,3.796,3.7954,3.7949,3.8018,3.8018,3.8019,0,0,3.8393,3.8373,3.8338,3.8316,3.8283,3.8267,3.8259,3.8223,3.821,3.8163,3.8156,3.8124,3.8062,3.8036,3.8014,3.7966,3.796,3.7954,3.7936,3.7908,3.7903,3.7898,3.788,3.7874,3.795,3.795,3.795,0,3.8381,3.8334,3.832,3.8286,3.8265,3.8259,3.8223,3.8201,3.8156,3.814,3.8147,3.807,3.8044,3.7987,3.7976,3.7958,3.7947,3.7958,3.7905,3.79,3.7896,3.7879,3.7872,3.7949,3.7949,3.7949,3.7949,0,3.832,3.8287,3.8263,3.8224,3.82,3.8164,3.8144,3.8121,3.8113,3.8096,3.8048,3.8018,3.7976,3.7962,3.7952,3.7903,3.7908,3.791,3.7921,3.789,3.7873,3.7866,3.7948,3.7949,3.7949,3.7949,0,0,3.8275,3.8231,3.8222,3.8204,3.8167,3.814,3.8104,3.8066,3.8047,3.8016,3.7984,3.7932,3.7935,3.791,3.7898,3.7873,3.7836,3.7878,3.7877,3.7871,3.7779,3.7777,3.777,3.7833,3.7832,3.7831,3.7782,0,3.8231,3.817,3.8157,3.8103,3.8072,3.8066,3.8034,3.8007,3.799,3.7959,3.7939,3.7902,3.7909,3.7894,3.7869,3.7846,3.7817,3.7849,3.7801,3.7799,3.781,3.7761,3.7759,3.7715,3.7776,3.7775,3.7774,0,3.8171,3.8142,3.8086,3.8054,3.804,3.8012,3.7977,3.7948,3.7916,3.7905,3.7879,3.787,3.783,3.7845,3.7788,3.7811,3.779,3.7776,3.7773,3.7767,3.7784,3.7753,3.77,3.7694,3.7763,3.7764,3.7765,0,3.8143,3.809,3.805,3.8035,3.7997,3.7977,3.796,3.793,3.7908,3.7876,3.7861,3.7824,3.7803,3.7773,3.7753,3.7766,3.7698,3.7711,3.7687,3.7687,3.7672,3.7673,3.7614,3.766,3.766,3.766,3.766,0,3.8095,3.806,3.8038,3.8013,3.7973,3.7959,3.7919,3.7901,3.7875,3.7845,3.7836,3.7807,3.7784,3.7751,3.7735,3.7691,3.7681,3.767,3.7666,3.767,3.7672,3.7656,3.7658,3.7658,3.7659,3.7659,3.7659,0,3.8057,3.8041,3.7997,3.7965,3.7956,3.7929,3.79,3.7874,3.7858,3.782,3.781,3.7783,3.7744,3.7723,3.7673,3.7662,3.7612,3.761,3.7624,3.7622,3.7599,3.7601,3.7527,3.7516,3.757,3.7569,3.7569,0,3.8027,3.8001,3.7967,3.7948,3.7932,3.79,3.7879,3.7862,3.784,3.7803,3.7781,3.7743,3.7711,3.7649,3.7623,3.7585,3.7581,3.7558,3.7575,3.7581,3.758,3.7582,3.7579,3.7555,3.7554,3.7554,3.7554,0,3.7975,3.7969,3.794,3.7908,3.7883,3.7857,3.783,3.7814,3.7793,3.7768,3.773,3.7706,3.7657,3.7618,3.7578,3.7557,3.7551,3.7549,3.7541,3.7545,3.7554,3.7548,3.7615,3.755,3.755,3.7551,3.7551,3.7551,3.794,3.7916,3.789,3.7858,3.7837,3.7812,3.7787,3.7769,3.7738,3.7699,3.769,3.765,3.7618,3.7565,3.7543,3.751,3.7514,3.7502,3.7499,3.7497,3.7496,3.756,3.7502,3.7502,3.7502,3.7502,3.7502,0,3.7887,3.787,3.7841,3.7806,3.778,3.778,3.7751,3.7728,3.7694,3.7667,3.7637,3.7593,3.7555,3.7528,3.7489,3.7468,3.7464,3.7458,3.7459,3.7454,3.7495,3.7505,3.7462,3.7462,3.7462,3.7462,3.7462,3.7462,3.7856,3.7817,3.7808,3.7757,3.774,3.7703,3.7686,3.7663,3.7641,3.7594,3.7564,3.7547,3.7519,3.7478,3.7444,3.7436,3.7422,3.7416,3.7408,3.7447,3.7451,3.7455,3.7465,3.7414,3.7413,3.737,3.737,3.737]}]]